Weather History for Topeka Forbes, KS

Change the Weather History Date:

Tuesday, September 10, 2013

  Actual Average Record
Temperature  
Mean Temperature 83 °F -  
Max Temperature 96 °F 84 °F 100 °F (1984)
Min Temperature 70 °F 57 °F 36 °F (1976)
Cooling Degree Days 18    
Growing Degree Days 33 (Base 50)    
Moisture  
Dew Point 62 °F    
Average Humidity 52    
Maximum Humidity 73    
Minimum Humidity 31    
Precipitation  
Precipitation 0.00 in - - ()
Sea Level Pressure  
Sea Level Pressure 29.98 in    
Wind  
Wind Speed 10 mph (South)    
Max Wind Speed 20 mph    
Max Gust Speed 26 mph    
Visibility 10 miles    
Events      
Averages and records for this station are not official NWS values.
T = Trace of Precipitation, MM = Missing Value Source: NWS Daily Summary

Daily Weather History Graph

Daily Weather History Graph

Search for Another Location

Airport:

Trip Planner

Search our weather history database for the weather conditions in past years. The results will help you decide how hot, cold, wet, or windy it might be!

Date:

Astronomy

Sep. 10, 2013 Rise Set
Actual Time 6:59 AM CDT 7:38 PM CDT
Civil Twilight 6:32 AM CDT 8:05 PM CDT
Nautical Twilight 6:01 AM CDT 8:37 PM CDT
Astronomical Twilight 5:28 AM CDT 9:09 PM CDT
Moon 12:23 PM CDT (9/10) 10:45 PM CDT (9/10)
Length of Visible Light 13h 32m
Length of Day
12h 38m
Waxing Crescent, 28% of the Moon is Illuminated
Sep 10
Waxing Crescent
Sep 12
First Quarter
Sep 19
Full
Sep 26
Last Quarter
Oct 4
New

Hourly Weather History & Observations

Time (CDT) Temp. Heat Index Dew Point Humidity Pressure Visibility Wind Dir Wind Speed Gust Speed Precip Events Conditions
12:53 AM 75.9 °F - 61.0 °F 60% 29.91 in 10.0 mi South 6.9 mph - N/A   Clear
1:53 AM 73.9 °F - 61.0 °F 64% 29.92 in 10.0 mi South 6.9 mph - N/A   Clear
2:53 AM 72.0 °F - 61.0 °F 68% 29.93 in 10.0 mi South 4.6 mph - N/A   Clear
3:53 AM 70.0 °F - 61.0 °F 73% 29.94 in 10.0 mi South 5.8 mph - N/A   Clear
4:53 AM 72.0 °F - 62.1 °F 71% 29.94 in 10.0 mi South 8.1 mph - N/A   Clear
5:53 AM 71.1 °F - 62.1 °F 73% 29.96 in 10.0 mi South 6.9 mph - N/A   Clear
6:53 AM 71.1 °F - 62.1 °F 73% 29.97 in 10.0 mi South 9.2 mph - N/A   Clear
7:53 AM 73.0 °F - 62.1 °F 68% 29.99 in 10.0 mi South 8.1 mph - N/A   Clear
8:53 AM 78.1 °F - 63.0 °F 60% 30.01 in 10.0 mi South 11.5 mph - N/A   Clear
9:53 AM 82.9 °F 84.0 °F 63.0 °F 51% 30.02 in 10.0 mi South 15.0 mph - N/A   Clear
10:53 AM 87.1 °F 88.3 °F 64.0 °F 46% 30.01 in 10.0 mi SSW 13.8 mph 24.2 mph N/A   Clear
11:53 AM 91.9 °F 93.3 °F 64.0 °F 39% 30.01 in 10.0 mi SSW 19.6 mph 24.2 mph N/A   Clear
12:53 PM 95.0 °F 97.0 °F 64.0 °F 36% 30.00 in 10.0 mi SSW 13.8 mph 21.9 mph N/A   Partly Cloudy
1:53 PM 96.1 °F 96.9 °F 62.1 °F 32% 29.99 in 10.0 mi SSW 17.3 mph 25.3 mph N/A   Scattered Clouds
2:53 PM 96.1 °F 96.4 °F 61.0 °F 31% 29.98 in 10.0 mi SSW 17.3 mph 25.3 mph N/A   Clear
3:53 PM 95.0 °F 94.8 °F 60.1 °F 31% 29.97 in 10.0 mi SSW 19.6 mph 24.2 mph N/A   Partly Cloudy
4:53 PM 93.9 °F 93.6 °F 60.1 °F 32% 29.96 in 10.0 mi SSW 18.4 mph 26.5 mph N/A   Scattered Clouds
5:53 PM 93.0 °F 93.0 °F 61.0 °F 34% 29.96 in 10.0 mi South 13.8 mph - N/A   Clear
6:53 PM 90.0 °F 89.7 °F 60.1 °F 37% 29.96 in 10.0 mi South 10.4 mph - N/A   Clear
7:53 PM 86.0 °F 86.3 °F 62.1 °F 44% 29.98 in 10.0 mi South 8.1 mph - N/A   Clear
8:53 PM 81.0 °F 82.2 °F 63.0 °F 54% 30.00 in 10.0 mi South 8.1 mph - N/A   Clear
9:53 PM 79.0 °F - 62.1 °F 56% 30.02 in 10.0 mi South 8.1 mph - N/A   Clear
10:53 PM 78.1 °F - 62.1 °F 58% 30.03 in 10.0 mi South 8.1 mph - N/A   Clear
11:53 PM 73.9 °F - 61.0 °F 64% 30.04 in 10.0 mi South 6.9 mph - N/A   Clear